Year,Month,Day,Hour,Minute,Value (Times are PST for barometer in hPa)
2012,01,21,00,00,980.97
2012,01,21,00,01,981.00
2012,01,21,00,02,980.97
2012,01,21,00,03,980.97
2012,01,21,00,04,980.91
2012,01,21,00,05,980.81
2012,01,21,00,06,980.86
2012,01,21,00,07,980.81
2012,01,21,00,08,980.86
2012,01,21,00,09,980.81
2012,01,21,00,10,980.77
2012,01,21,00,11,980.71
2012,01,21,00,12,980.70
2012,01,21,00,13,980.66
2012,01,21,00,14,980.63
2012,01,21,00,15,980.60
2012,01,21,00,16,980.65
2012,01,21,00,17,980.57
2012,01,21,00,18,980.62
2012,01,21,00,19,980.57
2012,01,21,00,20,980.51
2012,01,21,00,21,980.47
2012,01,21,00,22,980.43
2012,01,21,00,23,980.40
2012,01,21,00,24,980.39
2012,01,21,00,25,980.43
2012,01,21,00,26,980.46
2012,01,21,00,27,980.46
2012,01,21,00,28,980.43
2012,01,21,00,29,980.39
2012,01,21,00,30,980.39
2012,01,21,00,31,980.43
2012,01,21,00,32,980.39
2012,01,21,00,33,980.39
2012,01,21,00,34,980.43
2012,01,21,00,35,980.37
2012,01,21,00,36,980.36
2012,01,21,00,37,980.33
2012,01,21,00,38,980.36
2012,01,21,00,39,980.27
2012,01,21,00,40,980.22
2012,01,21,00,41,980.20
2012,01,21,00,42,980.13
2012,01,21,00,43,980.12
2012,01,21,00,44,980.12
2012,01,21,00,45,980.16
2012,01,21,00,46,980.12
2012,01,21,00,47,980.12
2012,01,21,00,48,980.09
2012,01,21,00,49,980.06
2012,01,21,00,50,980.06
2012,01,21,00,51,980.03
2012,01,21,00,52,980.02
2012,01,21,00,53,980.02
2012,01,21,00,54,979.99
2012,01,21,00,55,980.02
2012,01,21,00,56,979.96
2012,01,21,00,57,979.95
2012,01,21,00,58,979.95
2012,01,21,00,59,979.92
2012,01,21,01,00,979.89
2012,01,21,01,01,979.92
2012,01,21,01,02,979.92
2012,01,21,01,03,979.95
2012,01,21,01,04,979.95
2012,01,21,01,05,979.95
2012,01,21,01,06,979.92
2012,01,21,01,07,979.95
2012,01,21,01,08,979.95
2012,01,21,01,09,979.95
2012,01,21,01,10,979.92
2012,01,21,01,11,979.95
2012,01,21,01,12,979.95
2012,01,21,01,13,979.95
2012,01,21,01,14,979.99
2012,01,21,01,15,979.91
2012,01,21,01,16,979.85
2012,01,21,01,17,979.79
2012,01,21,01,18,979.78
2012,01,21,01,19,979.75
2012,01,21,01,20,979.78
2012,01,21,01,21,979.75
2012,01,21,01,22,979.78
2012,01,21,01,23,979.73
2012,01,21,01,24,979.74
2012,01,21,01,25,979.69
2012,01,21,01,26,979.68
2012,01,21,01,27,979.62
2012,01,21,01,28,979.61
2012,01,21,01,29,979.61
2012,01,21,01,30,979.58
2012,01,21,01,31,979.58
2012,01,21,01,32,979.55
2012,01,21,01,33,979.58
2012,01,21,01,34,979.58
2012,01,21,01,35,979.55
2012,01,21,01,36,979.55
2012,01,21,01,37,979.52
2012,01,21,01,38,979.51
2012,01,21,01,39,979.48
2012,01,21,01,40,979.51
2012,01,21,01,41,979.48
2012,01,21,01,42,979.51
2012,01,21,01,43,979.46
2012,01,21,01,44,979.45
2012,01,21,01,45,979.41
2012,01,21,01,46,979.41
2012,01,21,01,47,979.41
2012,01,21,01,48,979.38
2012,01,21,01,49,979.41
2012,01,21,01,50,979.41
2012,01,21,01,51,979.45
2012,01,21,01,52,979.42
2012,01,21,01,53,979.47
2012,01,21,01,54,979.45
2012,01,21,01,55,979.50
2012,01,21,01,56,979.51
2012,01,21,01,57,979.57
2012,01,21,01,58,979.61
2012,01,21,01,59,979.61
2012,01,21,02,00,979.67
2012,01,21,02,01,979.68
2012,01,21,02,02,979.65
2012,01,21,02,03,979.61
2012,01,21,02,04,979.67
2012,01,21,02,05,979.68
2012,01,21,02,06,979.72
2012,01,21,02,07,979.75
2012,01,21,02,08,979.72
2012,01,21,02,09,979.77
2012,01,21,02,10,979.78
2012,01,21,02,11,979.82
2012,01,21,02,12,979.82
2012,01,21,02,13,979.85
2012,01,21,02,14,979.85
2012,01,21,02,15,979.88
2012,01,21,02,16,979.92
2012,01,21,02,17,979.95
2012,01,21,02,18,979.95
2012,01,21,02,19,979.98
2012,01,21,02,20,979.99
2012,01,21,02,21,979.99
2012,01,21,02,22,980.02
2012,01,21,02,23,980.06
2012,01,21,02,24,980.02
2012,01,21,02,25,980.05
2012,01,21,02,26,980.09
2012,01,21,02,27,980.03
2012,01,21,02,28,980.02
2012,01,21,02,29,979.96
2012,01,21,02,30,979.95
2012,01,21,02,31,979.99
2012,01,21,02,32,980.05
2012,01,21,02,33,980.03
2012,01,21,02,34,980.08
2012,01,21,02,35,980.09
2012,01,21,02,36,980.15
2012,01,21,02,37,980.12
2012,01,21,02,38,980.21
2012,01,21,02,39,980.25
2012,01,21,02,40,980.26
2012,01,21,02,41,980.26
2012,01,21,02,42,980.35
2012,01,21,02,43,980.30
2012,01,21,02,44,980.32
2012,01,21,02,45,980.33
2012,01,21,02,46,980.36
2012,01,21,02,47,980.36
2012,01,21,02,48,980.36
2012,01,21,02,49,980.39
2012,01,21,02,50,980.43
2012,01,21,02,51,980.46
2012,01,21,02,52,980.43
2012,01,21,02,53,980.49
2012,01,21,02,54,980.46
2012,01,21,02,55,980.46
2012,01,21,02,56,980.46
2012,01,21,02,57,980.49
2012,01,21,02,58,980.47
2012,01,21,02,59,980.43
2012,01,21,03,00,980.46
2012,01,21,03,01,980.49
2012,01,21,03,02,980.50
2012,01,21,03,06,980.63
2012,01,21,03,07,980.70
2012,01,21,03,08,980.66
2012,01,21,03,09,980.73
2012,01,21,03,10,980.73
2012,01,21,03,11,980.77
2012,01,21,03,12,980.70
2012,01,21,03,13,980.73
2012,01,21,03,14,980.73
2012,01,21,03,15,980.70
2012,01,21,03,16,980.70
2012,01,21,03,17,980.70
2012,01,21,03,18,980.70
2012,01,21,03,19,980.70
2012,01,21,03,20,980.70
2012,01,21,03,21,980.70
2012,01,21,03,22,980.70
2012,01,21,03,23,980.66
2012,01,21,03,24,980.66
2012,01,21,03,25,980.66
2012,01,21,03,26,980.53
2012,01,21,03,27,980.50
2012,01,21,03,28,980.50
2012,01,21,03,29,980.39
2012,01,21,03,30,980.39
2012,01,21,03,31,980.39
2012,01,21,03,32,980.39
2012,01,21,03,33,980.36
2012,01,21,03,34,980.43
2012,01,21,03,35,980.39
2012,01,21,03,36,980.43
2012,01,21,03,37,980.43
2012,01,21,03,38,980.50
2012,01,21,03,39,980.46
2012,01,21,03,40,980.43
2012,01,21,03,41,980.46
2012,01,21,03,42,980.46
2012,01,21,03,43,980.50
2012,01,21,03,44,980.50
2012,01,21,03,45,980.53
2012,01,21,03,46,980.56
2012,01,21,03,47,980.56
2012,01,21,03,48,980.60
2012,01,21,03,49,980.63
2012,01,21,03,50,980.66
2012,01,21,03,51,980.66
2012,01,21,03,52,980.66
2012,01,21,03,53,980.73
2012,01,21,03,54,980.73
2012,01,21,03,55,980.77
2012,01,21,03,56,980.77
2012,01,21,03,57,980.77
2012,01,21,03,58,980.77
2012,01,21,03,59,980.80
2012,01,21,04,00,980.80
2012,01,21,04,01,980.80
2012,01,21,04,02,980.83
2012,01,21,04,03,980.83
2012,01,21,04,04,980.83
2012,01,21,04,05,980.87
2012,01,21,04,06,980.83
2012,01,21,04,07,980.83
2012,01,21,04,08,980.87
2012,01,21,04,09,980.83
2012,01,21,04,10,980.83
2012,01,21,04,11,980.87
2012,01,21,04,12,980.83
2012,01,21,04,13,980.83
2012,01,21,04,14,980.80
2012,01,21,04,15,980.83
2012,01,21,04,16,980.80
2012,01,21,04,17,980.83
2012,01,21,04,18,980.80
2012,01,21,04,19,980.80
2012,01,21,04,20,980.77
2012,01,21,04,21,980.80
2012,01,21,04,22,980.73
2012,01,21,04,23,980.77
2012,01,21,04,24,980.77
2012,01,21,04,25,980.77
2012,01,21,04,26,980.80
2012,01,21,04,27,980.83
2012,01,21,04,28,980.83
2012,01,21,04,29,980.87
2012,01,21,04,30,980.90
2012,01,21,04,31,980.90
2012,01,21,04,32,980.94
2012,01,21,04,33,980.97
2012,01,21,04,34,981.04
2012,01,21,04,35,981.00
2012,01,21,04,36,981.04
2012,01,21,04,37,981.10
2012,01,21,04,38,981.14
2012,01,21,04,39,981.21
2012,01,21,04,40,981.24
2012,01,21,04,41,981.27
2012,01,21,04,42,981.27
2012,01,21,04,43,981.31
2012,01,21,04,44,981.34
2012,01,21,04,45,981.44
2012,01,21,04,46,981.44
2012,01,21,04,47,981.48
2012,01,21,04,48,981.51
2012,01,21,04,49,981.48
2012,01,21,04,50,981.51
2012,01,21,04,51,981.58
2012,01,21,04,52,981.61
2012,01,21,04,53,981.61
2012,01,21,04,54,981.65
2012,01,21,04,55,981.68
2012,01,21,04,56,981.71
2012,01,21,04,57,981.68
2012,01,21,04,58,981.71
2012,01,21,04,59,981.71
2012,01,21,05,00,981.78
2012,01,21,05,01,981.82
2012,01,21,05,02,981.82
2012,01,21,05,03,981.82
2012,01,21,05,04,981.85
2012,01,21,05,05,981.88
2012,01,21,05,06,981.95
2012,01,21,05,07,981.88
2012,01,21,05,08,981.92
2012,01,21,05,09,981.92
2012,01,21,05,10,981.92
2012,01,21,05,11,981.99
2012,01,21,05,12,982.05
2012,01,21,05,13,982.02
2012,01,21,05,14,982.02
2012,01,21,05,15,982.11
2012,01,21,05,16,982.15
2012,01,21,05,17,982.22
2012,01,21,05,18,982.26
2012,01,21,05,19,982.29
2012,01,21,05,20,982.29
2012,01,21,05,21,982.32
2012,01,21,05,22,982.45
2012,01,21,05,23,982.53
2012,01,21,05,24,982.53
2012,01,21,05,25,982.49
2012,01,21,05,26,982.53
2012,01,21,05,27,982.49
2012,01,21,05,28,982.53
2012,01,21,05,29,982.56
2012,01,21,05,30,982.49
2012,01,21,05,31,982.56
2012,01,21,05,32,982.59
2012,01,21,05,33,982.66
2012,01,21,05,34,982.70
2012,01,21,05,35,982.60
2012,01,21,05,36,982.70
2012,01,21,05,37,982.63
2012,01,21,05,38,982.59
2012,01,21,05,39,982.66
2012,01,21,05,40,982.70
2012,01,21,05,41,982.66
2012,01,21,05,42,982.80
2012,01,21,05,43,982.83
2012,01,21,05,44,982.90
2012,01,21,05,45,982.83
2012,01,21,05,46,982.87
2012,01,21,05,47,982.97
2012,01,21,05,48,982.90
2012,01,21,05,49,982.97
2012,01,21,05,50,982.93
2012,01,21,05,51,982.97
2012,01,21,05,52,983.00
2012,01,21,05,53,983.00
2012,01,21,05,54,983.04
2012,01,21,05,55,982.97
2012,01,21,05,56,983.07
2012,01,21,05,57,983.10
2012,01,21,05,58,983.17
2012,01,21,05,59,983.20
2012,01,21,06,00,983.20
2012,01,21,06,01,983.20
2012,01,21,06,02,983.24
2012,01,21,06,03,983.27
2012,01,21,06,04,983.40
2012,01,21,06,05,983.51
2012,01,21,06,06,983.44
2012,01,21,06,07,983.60
2012,01,21,06,08,983.64
2012,01,21,06,09,983.71
2012,01,21,06,10,983.78
2012,01,21,06,11,983.81
2012,01,21,06,12,983.81
2012,01,21,06,13,983.88
2012,01,21,06,14,983.92
2012,01,21,06,15,983.95
2012,01,21,06,16,984.02
2012,01,21,06,17,984.02
2012,01,21,06,18,983.98
2012,01,21,06,19,983.98
2012,01,21,06,20,984.11
2012,01,21,06,21,984.08
2012,01,21,06,22,984.08
2012,01,21,06,23,984.08
2012,01,21,06,24,984.19
2012,01,21,06,25,984.22
2012,01,21,06,26,984.22
2012,01,21,06,27,984.25
2012,01,21,06,28,984.29
2012,01,21,06,29,984.32
2012,01,21,06,30,984.36
2012,01,21,06,31,984.39
2012,01,21,06,32,984.36
2012,01,21,06,33,984.42
2012,01,21,06,34,984.46
2012,01,21,06,35,984.46
2012,01,21,06,36,984.46
2012,01,21,06,37,984.53
2012,01,21,06,38,984.56
2012,01,21,06,39,984.72
2012,01,21,06,40,984.69
2012,01,21,06,41,984.69
2012,01,21,06,42,984.82
2012,01,21,06,43,984.90
2012,01,21,06,44,984.99
2012,01,21,06,45,985.07
2012,01,21,06,46,985.10
2012,01,21,06,47,985.17
2012,01,21,06,48,985.24
2012,01,21,06,49,985.30
2012,01,21,06,50,985.30
2012,01,21,06,51,985.34
2012,01,21,06,52,985.41
2012,01,21,06,53,985.51
2012,01,21,06,54,985.54
2012,01,21,06,55,985.57
2012,01,21,06,56,985.57
2012,01,21,06,57,985.64
2012,01,21,06,58,985.71
2012,01,21,06,59,985.78
2012,01,21,07,00,985.81
2012,01,21,07,01,985.81
2012,01,21,07,02,985.88
2012,01,21,07,03,985.91
2012,01,21,07,04,985.85
2012,01,21,07,05,985.88
2012,01,21,07,06,985.91
2012,01,21,07,07,985.95
2012,01,21,07,08,986.04
2012,01,21,07,09,986.15
2012,01,21,07,10,986.22
2012,01,21,07,11,986.29
2012,01,21,07,12,986.29
2012,01,21,07,13,986.41
2012,01,21,07,14,986.49
2012,01,21,07,15,986.52
2012,01,21,07,16,986.56
2012,01,21,07,17,986.62
2012,01,21,07,18,986.69
2012,01,21,07,19,986.73
2012,01,21,07,20,986.73
2012,01,21,07,21,986.83
2012,01,21,07,22,986.93
2012,01,21,07,23,986.96
2012,01,21,07,24,987.05
2012,01,21,07,25,987.10
2012,01,21,07,26,987.20
2012,01,21,07,27,987.23
2012,01,21,07,28,987.30
2012,01,21,07,29,987.30
2012,01,21,07,30,987.34
2012,01,21,07,31,987.40
2012,01,21,07,32,987.44
2012,01,21,07,33,987.51
2012,01,21,07,34,987.54
2012,01,21,07,35,987.61
2012,01,21,07,36,987.64
2012,01,21,07,37,987.67
2012,01,21,07,38,987.71
2012,01,21,07,39,987.71
2012,01,21,07,40,987.80
2012,01,21,07,41,987.81
2012,01,21,07,42,987.84
2012,01,21,07,43,987.95
2012,01,21,07,44,987.98
2012,01,21,07,45,988.01
2012,01,21,07,46,988.05
2012,01,21,07,47,988.11
2012,01,21,07,48,988.15
2012,01,21,07,49,988.15
2012,01,21,07,50,988.24
2012,01,21,07,51,988.32
2012,01,21,07,52,988.41
2012,01,21,07,53,988.49
2012,01,21,07,54,988.49
2012,01,21,07,55,988.59
2012,01,21,07,56,988.68
2012,01,21,07,57,988.69
2012,01,21,07,58,988.76
2012,01,21,07,59,988.85
2012,01,21,08,00,988.89
2012,01,21,08,01,988.96
2012,01,21,08,02,989.03
2012,01,21,08,03,989.03
2012,01,21,08,04,989.10
2012,01,21,08,05,989.10
2012,01,21,08,06,989.13
2012,01,21,08,07,989.20
2012,01,21,08,08,989.20
2012,01,21,08,09,989.29
2012,01,21,08,10,989.33
2012,01,21,08,11,989.33
2012,01,21,08,12,989.40
2012,01,21,08,13,989.40
2012,01,21,08,14,989.44
2012,01,21,08,15,989.47
2012,01,21,08,16,989.47
2012,01,21,08,17,989.50
2012,01,21,08,18,989.54
2012,01,21,08,19,989.57
2012,01,21,08,20,989.60
2012,01,21,08,21,989.71
2012,01,21,08,22,989.71
2012,01,21,08,23,989.74
2012,01,21,08,24,989.84
2012,01,21,08,25,989.91
2012,01,21,08,26,989.98
2012,01,21,08,27,990.01
2012,01,21,08,28,990.08
2012,01,21,08,29,990.15
2012,01,21,08,30,990.18
2012,01,21,08,31,990.21
2012,01,21,08,32,990.21
2012,01,21,08,33,990.25
2012,01,21,08,34,990.28
2012,01,21,08,35,990.35
2012,01,21,08,36,990.32
2012,01,21,08,37,990.35
2012,01,21,08,38,990.32
2012,01,21,08,39,990.38
2012,01,21,08,40,990.45
2012,01,21,08,41,990.45
2012,01,21,08,42,990.52
2012,01,21,08,43,990.52
2012,01,21,08,44,990.52
2012,01,21,08,45,990.59
2012,01,21,08,46,990.62
2012,01,21,08,47,990.69
2012,01,21,08,48,990.69
2012,01,21,08,49,990.72
2012,01,21,08,50,990.69
2012,01,21,08,51,990.69
2012,01,21,08,52,990.72
2012,01,21,08,53,990.76
2012,01,21,08,54,990.76
2012,01,21,08,55,990.85
2012,01,21,08,56,990.96
2012,01,21,08,57,990.96
2012,01,21,08,58,990.96
2012,01,21,08,59,990.99
2012,01,21,09,00,990.99
2012,01,21,09,01,991.06
2012,01,21,09,02,991.09
2012,01,21,09,03,991.13
2012,01,21,09,04,991.16
2012,01,21,09,05,991.20
2012,01,21,09,06,991.20
2012,01,21,09,07,991.29
2012,01,21,09,08,991.24
2012,01,21,09,09,991.26
2012,01,21,09,10,991.26
2012,01,21,09,11,991.26
2012,01,21,09,12,991.32
2012,01,21,09,13,991.37
2012,01,21,09,14,991.40
2012,01,21,09,15,991.43
2012,01,21,09,16,991.34
2012,01,21,09,17,991.42
2012,01,21,09,18,991.40
2012,01,21,09,19,991.43
2012,01,21,09,20,991.40
2012,01,21,09,21,991.43
2012,01,21,09,22,991.43
2012,01,21,09,23,991.43
2012,01,21,09,24,991.33
2012,01,21,09,25,991.33
2012,01,21,09,26,991.33
2012,01,21,09,27,991.33
2012,01,21,09,28,991.26
2012,01,21,09,29,991.33
2012,01,21,09,30,991.30
2012,01,21,09,31,991.33
2012,01,21,09,32,991.42
2012,01,21,09,33,991.37
2012,01,21,09,34,991.37
2012,01,21,09,35,991.37
2012,01,21,09,36,991.47
2012,01,21,09,37,991.47
2012,01,21,09,38,991.53
2012,01,21,09,39,991.53
2012,01,21,09,40,991.57
2012,01,21,09,41,991.57
2012,01,21,09,42,991.64
2012,01,21,09,43,991.60
2012,01,21,09,44,991.73
2012,01,21,09,45,991.77
2012,01,21,09,46,991.77
2012,01,21,09,47,991.77
2012,01,21,09,48,991.81
2012,01,21,09,49,991.84
2012,01,21,09,50,991.81
2012,01,21,09,51,991.91
2012,01,21,09,52,991.87
2012,01,21,09,53,991.94
2012,01,21,09,54,991.94
2012,01,21,09,55,991.94
2012,01,21,09,56,991.98
2012,01,21,09,57,991.98
2012,01,21,09,58,992.01
2012,01,21,09,59,991.98
2012,01,21,10,00,991.98
2012,01,21,10,01,991.91
2012,01,21,10,02,991.91
2012,01,21,10,03,991.94
2012,01,21,10,04,991.91
2012,01,21,10,05,991.94
2012,01,21,10,06,991.87
2012,01,21,10,07,991.91
2012,01,21,10,08,991.91
2012,01,21,10,09,991.94
2012,01,21,10,10,991.87
2012,01,21,10,11,991.91
2012,01,21,10,12,991.87
2012,01,21,10,13,991.87
2012,01,21,10,14,991.91
2012,01,21,10,15,991.98
2012,01,21,10,16,992.04
2012,01,21,10,17,992.14
2012,01,21,10,18,992.24
2012,01,21,10,19,992.30
2012,01,21,10,20,992.35
2012,01,21,10,21,992.38
2012,01,21,10,22,992.35
2012,01,21,10,23,992.31
2012,01,21,10,24,992.31
2012,01,21,10,25,992.31
2012,01,21,10,26,992.25
2012,01,21,10,27,992.28
2012,01,21,10,28,992.31
2012,01,21,10,29,992.41
2012,01,21,10,30,992.48
2012,01,21,10,31,992.58
2012,01,21,10,32,992.65
2012,01,21,10,33,992.65
2012,01,21,10,34,992.72
2012,01,21,10,35,992.72
2012,01,21,10,36,992.79
2012,01,21,10,37,992.82
2012,01,21,10,38,992.86
2012,01,21,10,39,992.86
2012,01,21,10,40,992.89
2012,01,21,10,41,992.92
2012,01,21,10,42,992.92
2012,01,21,10,43,992.98
2012,01,21,10,44,992.99
2012,01,21,10,45,992.96
2012,01,21,10,46,993.03
2012,01,21,10,47,993.03
2012,01,21,10,48,993.08
2012,01,21,10,49,993.09
2012,01,21,10,50,993.13
2012,01,21,10,51,993.13
2012,01,21,10,52,993.19
2012,01,21,10,53,993.29
2012,01,21,10,54,993.33
2012,01,21,10,55,993.36
2012,01,21,10,56,993.36
2012,01,21,10,57,993.43
2012,01,21,10,58,993.43
2012,01,21,10,59,993.47
2012,01,21,11,00,993.43
2012,01,21,11,01,993.43
2012,01,21,11,02,993.47
2012,01,21,11,03,993.53
2012,01,21,11,04,993.53
2012,01,21,11,05,993.53
2012,01,21,11,06,993.53
2012,01,21,11,07,993.53
2012,01,21,11,08,993.50
2012,01,21,11,09,993.53
2012,01,21,11,10,993.57
2012,01,21,11,11,993.53
2012,01,21,11,12,993.50
2012,01,21,11,13,993.59
2012,01,21,11,14,993.67
2012,01,21,11,15,993.63
2012,01,21,11,16,993.60
2012,01,21,11,17,993.63
2012,01,21,11,18,993.57
2012,01,21,11,19,993.60
2012,01,21,11,20,993.57
2012,01,21,11,21,993.50
2012,01,21,11,22,993.47
2012,01,21,11,23,993.47
2012,01,21,11,24,993.50
2012,01,21,11,25,993.47
2012,01,21,11,26,993.47
2012,01,21,11,27,993.50
2012,01,21,11,28,993.50
2012,01,21,11,29,993.53
2012,01,21,11,30,993.60
2012,01,21,11,31,993.60
2012,01,21,11,32,993.60
2012,01,21,11,33,993.63
2012,01,21,11,34,993.67
2012,01,21,11,35,993.67
2012,01,21,11,36,993.70
2012,01,21,11,37,993.74
2012,01,21,11,38,993.74
2012,01,21,11,39,993.77
2012,01,21,11,40,993.80
2012,01,21,11,41,993.77
2012,01,21,11,42,993.86
2012,01,21,11,43,993.91
2012,01,21,11,44,993.87
2012,01,21,11,45,993.94
2012,01,21,11,46,993.91
2012,01,21,11,47,993.87
2012,01,21,11,48,993.84
2012,01,21,11,49,993.84
2012,01,21,11,50,993.87
2012,01,21,11,51,993.94
2012,01,21,11,52,993.87
2012,01,21,11,53,993.91
2012,01,21,11,54,993.87
2012,01,21,11,55,993.87
2012,01,21,11,56,993.91
2012,01,21,11,57,993.91
2012,01,21,11,58,993.87
2012,01,21,11,59,993.80
2012,01,21,12,00,993.84
2012,01,21,12,01,993.80
2012,01,21,12,02,993.90
2012,01,21,12,03,993.91
2012,01,21,12,04,993.87
2012,01,21,12,05,993.87
2012,01,21,12,06,993.94
2012,01,21,12,07,993.91
2012,01,21,12,08,994.01
2012,01,21,12,09,994.04
2012,01,21,12,10,994.11
2012,01,21,12,11,994.14
2012,01,21,12,12,994.21
2012,01,21,12,13,994.24
2012,01,21,12,14,994.24
2012,01,21,12,15,994.28
2012,01,21,12,16,994.35
2012,01,21,12,17,994.38
2012,01,21,12,18,994.47
2012,01,21,12,19,994.52
2012,01,21,12,20,994.52
2012,01,21,12,21,994.52
2012,01,21,12,22,994.58
2012,01,21,12,23,994.58
2012,01,21,12,24,994.62
2012,01,21,12,25,994.65
2012,01,21,12,26,994.65
2012,01,21,12,27,994.68
2012,01,21,12,28,994.72
2012,01,21,12,29,994.75
2012,01,21,12,30,994.82
2012,01,21,12,31,994.75
2012,01,21,12,32,994.79
2012,01,21,12,33,994.85
2012,01,21,12,34,994.89
2012,01,21,12,35,994.89
2012,01,21,12,36,994.92
2012,01,21,12,37,994.92
2012,01,21,12,38,994.99
2012,01,21,12,39,994.99
2012,01,21,12,40,994.96
2012,01,21,12,41,994.99
2012,01,21,12,42,994.96
2012,01,21,12,43,995.02
2012,01,21,12,44,994.99
2012,01,21,12,45,995.02
2012,01,21,12,46,995.02
2012,01,21,12,47,995.06
2012,01,21,12,48,995.06
2012,01,21,12,49,995.02
2012,01,21,12,50,995.09
2012,01,21,12,51,995.12
2012,01,21,12,52,995.19
2012,01,21,12,53,995.16
2012,01,21,12,54,995.09
2012,01,21,12,55,995.16
2012,01,21,12,56,995.23
2012,01,21,12,57,995.29
2012,01,21,12,58,995.33
2012,01,21,12,59,995.33
2012,01,21,13,00,995.33
2012,01,21,13,01,995.29
2012,01,21,13,02,995.36
2012,01,21,13,03,995.36
2012,01,21,13,04,995.33
2012,01,21,13,05,995.40
2012,01,21,13,06,995.43
2012,01,21,13,07,995.46
2012,01,21,13,08,995.50
2012,01,21,13,09,995.53
2012,01,21,13,10,995.46
2012,01,21,13,11,995.46
2012,01,21,13,12,995.43
2012,01,21,13,13,995.46
2012,01,21,13,14,995.50
2012,01,21,13,15,995.53
2012,01,21,13,16,995.62
2012,01,21,13,17,995.70
2012,01,21,13,18,995.73
2012,01,21,13,19,995.73
2012,01,21,13,20,995.77
2012,01,21,13,21,995.77
2012,01,21,13,22,995.84
2012,01,21,13,23,995.84
2012,01,21,13,24,995.90
2012,01,21,13,25,995.87
2012,01,21,13,26,995.90
2012,01,21,13,27,995.90
2012,01,21,13,28,995.94
2012,01,21,13,29,996.03
2012,01,21,13,30,996.07
2012,01,21,13,31,996.01
2012,01,21,13,32,996.04
2012,01,21,13,33,996.07
2012,01,21,13,34,996.07
2012,01,21,13,35,996.11
2012,01,21,13,36,996.11
2012,01,21,13,37,996.11
2012,01,21,13,38,996.21
2012,01,21,13,39,996.17
2012,01,21,13,40,996.27
2012,01,21,13,41,996.34
2012,01,21,13,42,996.34
2012,01,21,13,43,996.38
2012,01,21,13,44,996.44
2012,01,21,13,45,996.45
2012,01,21,13,46,996.48
2012,01,21,13,47,996.45
2012,01,21,13,48,996.41
2012,01,21,13,49,996.45
2012,01,21,13,50,996.45
2012,01,21,13,51,996.51
2012,01,21,13,52,996.48
2012,01,21,13,53,996.55
2012,01,21,13,54,996.55
2012,01,21,13,55,996.51
2012,01,21,13,56,996.60
2012,01,21,13,57,996.61
2012,01,21,13,58,996.72
2012,01,21,13,59,996.75
2012,01,21,14,00,996.72
2012,01,21,14,01,996.77
2012,01,21,14,02,996.82
2012,01,21,14,03,996.78
2012,01,21,14,04,996.78
2012,01,21,14,05,996.78
2012,01,21,14,06,996.85
2012,01,21,14,07,996.95
2012,01,21,14,08,996.85
2012,01,21,14,09,996.91
2012,01,21,14,10,996.99
2012,01,21,14,11,996.99
2012,01,21,14,12,997.02
2012,01,21,14,13,997.02
2012,01,21,14,14,996.99
2012,01,21,14,15,997.05
2012,01,21,14,16,997.11
2012,01,21,14,17,997.12
2012,01,21,14,18,997.19
2012,01,21,14,19,997.16
2012,01,21,14,20,997.12
2012,01,21,14,21,997.25
2012,01,21,14,22,997.22
2012,01,21,14,23,997.29
2012,01,21,14,24,997.36
2012,01,21,14,25,997.43
2012,01,21,14,26,997.43
2012,01,21,14,27,997.46
2012,01,21,14,28,997.55
2012,01,21,14,29,997.53
2012,01,21,14,30,997.60
2012,01,21,14,31,997.76
2012,01,21,14,32,997.77
2012,01,21,14,33,997.73
2012,01,21,14,34,997.73
2012,01,21,14,35,997.83
2012,01,21,14,36,997.77
2012,01,21,14,37,997.77
2012,01,21,14,38,997.80
2012,01,21,14,39,997.83
2012,01,21,14,40,997.87
2012,01,21,14,41,997.97
2012,01,21,14,42,997.97
2012,01,21,14,43,997.97
2012,01,21,14,44,997.94
2012,01,21,14,45,997.94
2012,01,21,14,46,997.97
2012,01,21,14,47,997.94
2012,01,21,14,48,998.03
2012,01,21,14,49,998.00
2012,01,21,14,50,998.04
2012,01,21,14,51,998.04
2012,01,21,14,52,998.07
2012,01,21,14,53,998.07
2012,01,21,14,54,998.10
2012,01,21,14,55,998.07
2012,01,21,14,56,998.16
2012,01,21,14,57,998.21
2012,01,21,14,58,998.26
2012,01,21,14,59,998.31
2012,01,21,15,00,998.34
2012,01,21,15,01,998.31
2012,01,21,15,02,998.37
2012,01,21,15,03,998.44
2012,01,21,15,04,998.48
2012,01,21,15,05,998.48
2012,01,21,15,06,998.48
2012,01,21,15,07,998.51
2012,01,21,15,08,998.54
2012,01,21,15,09,998.61
2012,01,21,15,10,998.65
2012,01,21,15,11,998.74
2012,01,21,15,12,998.97
2012,01,21,15,13,998.95
2012,01,21,15,14,998.95
2012,01,21,15,15,999.01
2012,01,21,15,16,999.14
2012,01,21,15,17,999.25
2012,01,21,15,18,999.29
2012,01,21,15,19,999.32
2012,01,21,15,20,999.36
2012,01,21,15,21,999.42
2012,01,21,15,22,999.39
2012,01,21,15,23,999.32
2012,01,21,15,24,999.32
2012,01,21,15,25,999.32
2012,01,21,15,26,999.32
2012,01,21,15,27,999.32
2012,01,21,15,28,999.36
2012,01,21,15,29,999.36
2012,01,21,15,30,999.39
2012,01,21,15,31,999.45
2012,01,21,15,32,999.52
2012,01,21,15,33,999.56
2012,01,21,15,34,999.59
2012,01,21,15,35,999.63
2012,01,21,15,36,999.66
2012,01,21,15,37,999.76
2012,01,21,15,38,999.80
2012,01,21,15,39,999.86
2012,01,21,15,40,999.93
2012,01,21,15,41,999.93
2012,01,21,15,42,999.97
2012,01,21,15,43,1000.00
2012,01,21,15,44,1000.03
2012,01,21,15,45,1000.07
2012,01,21,15,46,1000.03
2012,01,21,15,47,1000.10
2012,01,21,15,48,1000.10
2012,01,21,15,49,1000.10
2012,01,21,15,50,1000.10
2012,01,21,15,51,1000.17
2012,01,21,15,52,1000.17
2012,01,21,15,53,1000.20
2012,01,21,15,54,1000.20
2012,01,21,15,55,1000.26
2012,01,21,15,56,1000.24
2012,01,21,15,57,1000.31
2012,01,21,15,58,1000.37
2012,01,21,15,59,1000.41
2012,01,21,16,00,1000.44
2012,01,21,16,01,1000.48
2012,01,21,16,02,1000.42
2012,01,21,16,03,1000.44
2012,01,21,16,04,1000.41
2012,01,21,16,05,1000.41
2012,01,21,16,06,1000.44
2012,01,21,16,07,1000.53
2012,01,21,16,08,1000.51
2012,01,21,16,09,1000.54
2012,01,21,16,10,1000.54
2012,01,21,16,11,1000.58
2012,01,21,16,12,1000.61
2012,01,21,16,13,1000.58
2012,01,21,16,14,1000.61
2012,01,21,16,15,1000.64
2012,01,21,16,16,1000.54
2012,01,21,16,17,1000.54
2012,01,21,16,18,1000.61
2012,01,21,16,19,1000.54
2012,01,21,16,20,1000.60
2012,01,21,16,21,1000.64
2012,01,21,16,22,1000.68
2012,01,21,16,23,1000.71
2012,01,21,16,24,1000.68
2012,01,21,16,25,1000.71
2012,01,21,16,26,1000.75
2012,01,21,16,27,1000.80
2012,01,21,16,28,1000.85
2012,01,21,16,29,1000.88
2012,01,21,16,30,1000.85
2012,01,21,16,31,1000.85
2012,01,21,16,32,1000.85
2012,01,21,16,33,1000.81
2012,01,21,16,34,1000.85
2012,01,21,16,35,1000.94
2012,01,21,16,36,1001.01